Hourly Data Report for October 14, 2015

All times are specified in Local Standard Time (LST). Add 1 hour to adjust for Daylight Saving Time where and when it is observed.

BAKER LAKE A
NUNAVUT

64°17'56.000" N
96°04'40.000" W
18.60 m
2300503
71926
YBK

Download Data

Hourly Data (October 2015)
Hourly Data Report for October 14, 2015
Temp Definition
°C
Dew Point Temp Definition
°C
Rel Hum Definition
%
Wind Dir Definition
10's deg

Wind Spd Definition
km/h
Visibility Definition
km
Stn Press Definition
kPa
Hmdx Definition


Wind Chill Definition


Weather Definition


TIME
00:00 Legend Double Dagger -9.0 -11.2 84 34 11 24.1 100.69   -14 Snow
01:00 Legend Double Dagger -8.6 -11.0 83 33 7 24.1 100.70   -12 Snow
02:00 Legend Double Dagger -8.4 -10.8 83 33 12 24.1 100.71   -14 Snow
03:00 Legend Double Dagger -7.9 -11.1 78 1 13 24.1 100.72   -14 Snow
04:00 Legend Double Dagger -7.9 -11.4 76 1 12 24.1 100.75   -13 Snow
05:00 Legend Double Dagger -8.0 -11.5 76 35 15 24.1 100.81   -14 Snow
06:00 Legend Double Dagger -8.1 -11.0 80 36 11 24.1 100.85   -13 Snow
07:00 Legend Double Dagger -7.8 -11.5 75 2 10 32.2 100.88   -13 Snow
08:00 Legend Double Dagger -7.9 -11.3 77 34 22 16.1 100.92   -16 Snow
09:00 Legend Double Dagger -8.2 -12.4 72 33 18 24.1 100.97   -15 Snow
10:00 Legend Double Dagger -7.8 -12.0 72 32 19 24.1 101.01   -15 Snow
11:00 Legend Double Dagger -7.8 -11.5 75 33 25 8.1 101.04   -16 Snow
12:00 Legend Double Dagger -7.7 -12.3 70 35 21 8.1 101.09   -15 Snow
13:00 Legend Double Dagger -7.4 -11.8 71 33 23 24.1 101.12   -15 Snow
14:00 Legend Double Dagger -7.2 -11.8 70 34 23 24.1 101.18   -15 Snow
15:00 Legend Double Dagger -7.2 -11.3 73 32 27 24.1 101.23   -15 Snow
16:00 Legend Double Dagger -7.6 -11.8 72 34 33 16.1 101.29   -17 Snow
17:00 Legend Double Dagger -7.5 -11.9 71 33 23 32.2 101.33   -15 Snow
18:00 Legend Double Dagger -7.8 -12.0 72 33 28 24.1 101.39   -16 Snow
19:00 Legend Double Dagger -7.8 -11.7 74 32 27 24.1 101.44   -16 Snow
20:00 Legend Double Dagger -8.3 -10.9 82 32 22 24.1 101.47   -16 Snow,Blowing Snow
21:00 Legend Double Dagger -9.1 -13.1 73 32 30 24.1 101.50   -18 Snow,Blowing Snow
22:00 Legend Double Dagger -9.2 -13.2 73 35 32 24.1 101.54   -19 Snow,Blowing Snow
23:00 Legend Double Dagger -8.9 -12.4 76 32 34 16.1 101.52   -19 Snow,Blowing Snow

Notes on Data Quality.

Legend

  • E = Estimated
  • M = Missing
  • NA = Not Available
  • ‡ = Partner data that is not subject to review by the National Climate Archives
Date modified: